Year,Month,Day,Hour,Minute,Value (Times are PST for temperature in C)
2016,09,11,00,00,14.00
2016,09,11,00,01,13.90
2016,09,11,00,02,13.90
2016,09,11,00,03,13.90
2016,09,11,00,04,13.90
2016,09,11,00,05,13.80
2016,09,11,00,06,13.80
2016,09,11,00,07,13.80
2016,09,11,00,08,13.80
2016,09,11,00,09,13.80
2016,09,11,00,10,13.80
2016,09,11,00,11,13.80
2016,09,11,00,12,13.80
2016,09,11,00,13,13.80
2016,09,11,00,14,13.80
2016,09,11,00,15,13.70
2016,09,11,00,16,13.70
2016,09,11,00,17,13.70
2016,09,11,00,18,13.70
2016,09,11,00,19,13.70
2016,09,11,00,20,13.70
2016,09,11,00,21,13.70
2016,09,11,00,22,13.70
2016,09,11,00,23,13.70
2016,09,11,00,24,13.70
2016,09,11,00,25,13.80
2016,09,11,00,26,13.80
2016,09,11,00,27,13.80
2016,09,11,00,28,13.70
2016,09,11,00,29,13.70
2016,09,11,00,30,13.70
2016,09,11,00,31,13.70
2016,09,11,00,32,13.70
2016,09,11,00,33,13.70
2016,09,11,00,34,13.70
2016,09,11,00,35,13.70
2016,09,11,00,36,13.70
2016,09,11,00,37,13.60
2016,09,11,00,38,13.60
2016,09,11,00,39,13.60
2016,09,11,00,40,13.60
2016,09,11,00,41,13.60
2016,09,11,00,42,13.50
2016,09,11,00,43,13.50
2016,09,11,00,44,13.50
2016,09,11,00,45,13.50
2016,09,11,00,46,13.40
2016,09,11,00,47,13.40
2016,09,11,00,48,13.40
2016,09,11,00,49,13.40
2016,09,11,00,50,13.40
2016,09,11,00,51,13.40
2016,09,11,00,52,13.40
2016,09,11,00,53,13.30
2016,09,11,00,54,13.30
2016,09,11,00,55,13.30
2016,09,11,00,56,13.30
2016,09,11,00,57,13.30
2016,09,11,00,58,13.30
2016,09,11,00,59,13.30
2016,09,11,01,00,13.30
2016,09,11,01,01,13.30
2016,09,11,01,02,13.30
2016,09,11,01,03,13.30
2016,09,11,01,04,13.30
2016,09,11,01,05,13.30
2016,09,11,01,06,13.30
2016,09,11,01,07,13.30
2016,09,11,01,08,13.30
2016,09,11,01,09,13.30
2016,09,11,01,10,13.30
2016,09,11,01,11,13.30
2016,09,11,01,12,13.30
2016,09,11,01,13,13.30
2016,09,11,01,14,13.30
2016,09,11,01,15,13.30
2016,09,11,01,16,13.30
2016,09,11,01,17,13.30
2016,09,11,01,18,13.30
2016,09,11,01,19,13.20
2016,09,11,01,20,13.20
2016,09,11,01,21,13.20
2016,09,11,01,22,13.20
2016,09,11,01,23,13.20
2016,09,11,01,24,13.20
2016,09,11,01,25,13.20
2016,09,11,01,26,13.20
2016,09,11,01,27,13.20
2016,09,11,01,28,13.20
2016,09,11,01,29,13.20
2016,09,11,01,30,13.20
2016,09,11,01,31,13.20
2016,09,11,01,32,13.20
2016,09,11,01,33,13.20
2016,09,11,01,34,13.20
2016,09,11,01,35,13.10
2016,09,11,01,36,13.10
2016,09,11,01,37,13.10
2016,09,11,01,38,13.10
2016,09,11,01,39,13.10
2016,09,11,01,40,13.10
2016,09,11,01,41,13.10
2016,09,11,01,42,13.10
2016,09,11,01,43,13.00
2016,09,11,01,44,13.00
2016,09,11,01,45,13.00
2016,09,11,01,46,13.00
2016,09,11,01,47,12.90
2016,09,11,01,48,12.90
2016,09,11,01,49,12.90
2016,09,11,01,50,12.90
2016,09,11,01,51,12.90
2016,09,11,01,52,12.90
2016,09,11,01,53,12.90
2016,09,11,01,54,12.90
2016,09,11,01,55,12.90
2016,09,11,01,56,12.90
2016,09,11,01,57,12.90
2016,09,11,01,58,12.90
2016,09,11,01,59,12.90
2016,09,11,02,00,12.90
2016,09,11,02,01,12.80
2016,09,11,02,02,12.80
2016,09,11,02,03,12.80
2016,09,11,02,04,12.80
2016,09,11,02,05,12.80
2016,09,11,02,06,12.80
2016,09,11,02,07,12.80
2016,09,11,02,08,12.80
2016,09,11,02,09,12.80
2016,09,11,02,10,12.80
2016,09,11,02,11,12.80
2016,09,11,02,12,12.80
2016,09,11,02,13,12.80
2016,09,11,02,14,12.80
2016,09,11,02,15,12.80
2016,09,11,02,16,12.80
2016,09,11,02,17,12.80
2016,09,11,02,18,12.80
2016,09,11,02,19,12.90
2016,09,11,02,20,12.90
2016,09,11,02,21,12.90
2016,09,11,02,22,12.90
2016,09,11,02,23,12.90
2016,09,11,02,24,12.90
2016,09,11,02,25,12.90
2016,09,11,02,26,12.90
2016,09,11,02,27,12.90
2016,09,11,02,28,12.90
2016,09,11,02,29,12.90
2016,09,11,02,30,12.90
2016,09,11,02,31,12.90
2016,09,11,02,32,12.90
2016,09,11,02,33,12.90
2016,09,11,02,34,12.90
2016,09,11,02,35,12.90
2016,09,11,02,36,12.90
2016,09,11,02,37,12.90
2016,09,11,02,38,12.90
2016,09,11,02,39,12.90
2016,09,11,02,40,12.90
2016,09,11,02,41,12.90
2016,09,11,02,42,12.90
2016,09,11,02,43,12.90
2016,09,11,02,44,12.90
2016,09,11,02,45,12.90
2016,09,11,02,46,12.90
2016,09,11,02,47,12.80
2016,09,11,02,48,12.80
2016,09,11,02,49,12.80
2016,09,11,02,50,12.80
2016,09,11,02,51,12.80
2016,09,11,02,52,12.80
2016,09,11,02,53,12.80
2016,09,11,02,54,12.80
2016,09,11,02,55,12.80
2016,09,11,02,56,12.80
2016,09,11,02,57,12.80
2016,09,11,02,58,12.80
2016,09,11,02,59,12.80
2016,09,11,03,00,12.80
2016,09,11,03,01,12.80
2016,09,11,03,02,12.80
2016,09,11,03,03,12.80
2016,09,11,03,04,12.80
2016,09,11,03,05,12.80
2016,09,11,03,06,12.80
2016,09,11,03,07,12.80
2016,09,11,03,08,12.80
2016,09,11,03,09,12.80
2016,09,11,03,10,12.80
2016,09,11,03,11,12.80
2016,09,11,03,12,12.80
2016,09,11,03,13,12.70
2016,09,11,03,14,12.70
2016,09,11,03,15,12.70
2016,09,11,03,16,12.70
2016,09,11,03,17,12.70
2016,09,11,03,18,12.70
2016,09,11,03,19,12.70
2016,09,11,03,20,12.70
2016,09,11,03,21,12.70
2016,09,11,03,22,12.70
2016,09,11,03,23,12.60
2016,09,11,03,24,12.70
2016,09,11,03,25,12.60
2016,09,11,03,26,12.60
2016,09,11,03,27,12.70
2016,09,11,03,28,12.60
2016,09,11,03,29,12.60
2016,09,11,03,30,12.70
2016,09,11,03,31,12.70
2016,09,11,03,32,12.70
2016,09,11,03,33,12.60
2016,09,11,03,34,12.60
2016,09,11,03,35,12.60
2016,09,11,03,36,12.60
2016,09,11,03,37,12.60
2016,09,11,03,38,12.60
2016,09,11,03,39,12.60
2016,09,11,03,40,12.60
2016,09,11,03,41,12.60
2016,09,11,03,42,12.60
2016,09,11,03,43,12.60
2016,09,11,03,44,12.60
2016,09,11,03,45,12.60
2016,09,11,03,46,12.60
2016,09,11,03,47,12.60
2016,09,11,03,48,12.60
2016,09,11,03,49,12.60
2016,09,11,03,50,12.60
2016,09,11,03,51,12.60
2016,09,11,03,52,12.70
2016,09,11,03,53,12.70
2016,09,11,03,54,12.70
2016,09,11,03,55,12.70
2016,09,11,03,56,12.70
2016,09,11,03,57,12.70
2016,09,11,03,58,12.70
2016,09,11,03,59,12.70
2016,09,11,04,00,12.70
2016,09,11,04,01,12.70
2016,09,11,04,02,12.70
2016,09,11,04,03,12.80
2016,09,11,04,04,12.80
2016,09,11,04,05,12.80
2016,09,11,04,06,12.80
2016,09,11,04,07,12.80
2016,09,11,04,08,12.90
2016,09,11,04,09,12.90
2016,09,11,04,10,12.90
2016,09,11,04,11,12.90
2016,09,11,04,12,12.90
2016,09,11,04,13,12.90
2016,09,11,04,14,13.00
2016,09,11,04,15,13.00
2016,09,11,04,16,13.00
2016,09,11,04,17,13.00
2016,09,11,04,18,13.00
2016,09,11,04,19,13.00
2016,09,11,04,20,13.00
2016,09,11,04,21,13.00
2016,09,11,04,22,13.00
2016,09,11,04,23,13.00
2016,09,11,04,24,13.00
2016,09,11,04,25,13.00
2016,09,11,04,26,13.00
2016,09,11,04,27,13.00
2016,09,11,04,28,13.00
2016,09,11,04,29,13.00
2016,09,11,04,30,13.00
2016,09,11,04,31,13.00
2016,09,11,04,32,12.90
2016,09,11,04,33,12.90
2016,09,11,04,34,12.90
2016,09,11,04,35,12.90
2016,09,11,04,36,12.90
2016,09,11,04,37,12.90
2016,09,11,04,38,12.90
2016,09,11,04,39,12.90
2016,09,11,04,40,12.90
2016,09,11,04,41,12.80
2016,09,11,04,42,12.80
2016,09,11,04,43,12.80
2016,09,11,04,44,12.80
2016,09,11,04,45,12.80
2016,09,11,04,46,12.80
2016,09,11,04,47,12.70
2016,09,11,04,48,12.70
2016,09,11,04,49,12.70
2016,09,11,04,50,12.70
2016,09,11,04,51,12.70
2016,09,11,04,52,12.70
2016,09,11,04,53,12.60
2016,09,11,04,54,12.60
2016,09,11,04,55,12.60
2016,09,11,04,56,12.60
2016,09,11,04,57,12.60
2016,09,11,04,58,12.50
2016,09,11,04,59,12.50
2016,09,11,05,00,12.50
2016,09,11,05,01,12.40
2016,09,11,05,02,12.40
2016,09,11,05,03,12.40
2016,09,11,05,04,12.40
2016,09,11,05,05,12.40
2016,09,11,05,06,12.30
2016,09,11,05,07,12.30
2016,09,11,05,08,12.30
2016,09,11,05,09,12.30
2016,09,11,05,10,12.30
2016,09,11,05,11,12.20
2016,09,11,05,12,12.20
2016,09,11,05,13,12.20
2016,09,11,05,14,12.20
2016,09,11,05,15,12.20
2016,09,11,05,16,12.20
2016,09,11,05,17,12.20
2016,09,11,05,18,12.20
2016,09,11,05,19,12.20
2016,09,11,05,20,12.20
2016,09,11,05,21,12.20
2016,09,11,05,22,12.20
2016,09,11,05,23,12.20
2016,09,11,05,24,12.20
2016,09,11,05,25,12.20
2016,09,11,05,26,12.20
2016,09,11,05,27,12.20
2016,09,11,05,28,12.20
2016,09,11,05,29,12.20
2016,09,11,05,30,12.20
2016,09,11,05,31,12.10
2016,09,11,05,32,12.10
2016,09,11,05,33,12.10
2016,09,11,05,34,12.00
2016,09,11,05,35,12.00
2016,09,11,05,36,12.00
2016,09,11,05,37,11.90
2016,09,11,05,38,11.90
2016,09,11,05,39,11.90
2016,09,11,05,40,11.90
2016,09,11,05,41,11.90
2016,09,11,05,42,11.90
2016,09,11,05,43,11.80
2016,09,11,05,44,11.80
2016,09,11,05,45,11.80
2016,09,11,05,46,11.80
2016,09,11,05,47,11.80
2016,09,11,05,48,11.80
2016,09,11,05,49,11.80
2016,09,11,05,50,11.70
2016,09,11,05,51,11.70
2016,09,11,05,52,11.70
2016,09,11,05,53,11.70
2016,09,11,05,54,11.70
2016,09,11,05,55,11.60
2016,09,11,05,56,11.60
2016,09,11,05,57,11.60
2016,09,11,05,58,11.60
2016,09,11,05,59,11.60
2016,09,11,06,00,11.50
2016,09,11,06,01,11.50
2016,09,11,06,02,11.50
2016,09,11,06,03,11.40
2016,09,11,06,04,11.40
2016,09,11,06,05,11.40
2016,09,11,06,06,11.30
2016,09,11,06,07,11.30
2016,09,11,06,08,11.30
2016,09,11,06,09,11.30
2016,09,11,06,10,11.30
2016,09,11,06,11,11.30
2016,09,11,06,12,11.20
2016,09,11,06,13,11.20
2016,09,11,06,14,11.20
2016,09,11,06,15,11.20
2016,09,11,06,16,11.20
2016,09,11,06,17,11.10
2016,09,11,06,18,11.10
2016,09,11,06,19,11.10
2016,09,11,06,20,11.10
2016,09,11,06,21,11.00
2016,09,11,06,22,11.00
2016,09,11,06,23,11.00
2016,09,11,06,24,11.00
2016,09,11,06,25,10.90
2016,09,11,06,26,10.90
2016,09,11,06,27,10.90
2016,09,11,06,28,10.90
2016,09,11,06,29,10.90
2016,09,11,06,30,10.90
2016,09,11,06,31,10.90
2016,09,11,06,32,10.80
2016,09,11,06,33,10.80
2016,09,11,06,34,10.80
2016,09,11,06,35,10.80
2016,09,11,06,36,10.80
2016,09,11,06,37,10.80
2016,09,11,06,38,10.80
2016,09,11,06,39,10.70
2016,09,11,06,40,10.70
2016,09,11,06,41,10.70
2016,09,11,06,42,10.70
2016,09,11,06,43,10.70
2016,09,11,06,44,10.70
2016,09,11,06,45,10.70
2016,09,11,06,46,10.70
2016,09,11,06,47,10.70
2016,09,11,06,48,10.70
2016,09,11,06,49,10.70
2016,09,11,06,50,10.70
2016,09,11,06,51,10.70
2016,09,11,06,52,10.70
2016,09,11,06,53,10.70
2016,09,11,06,54,10.60
2016,09,11,06,55,10.60
2016,09,11,06,56,10.60
2016,09,11,06,57,10.60
2016,09,11,06,58,10.60
2016,09,11,06,59,10.60
2016,09,11,07,00,10.70
2016,09,11,07,01,10.70
2016,09,11,07,02,10.70
2016,09,11,07,03,10.70
2016,09,11,07,04,10.70
2016,09,11,07,05,10.70
2016,09,11,07,06,10.70
2016,09,11,07,07,10.70
2016,09,11,07,08,10.70
2016,09,11,07,09,10.70
2016,09,11,07,10,10.70
2016,09,11,07,11,10.70
2016,09,11,07,12,10.70
2016,09,11,07,13,10.60
2016,09,11,07,14,10.60
2016,09,11,07,15,10.60
2016,09,11,07,16,10.60
2016,09,11,07,17,10.60
2016,09,11,07,18,10.60
2016,09,11,07,19,10.60
2016,09,11,07,20,10.50
2016,09,11,07,21,10.50
2016,09,11,07,22,10.50
2016,09,11,07,23,10.50
2016,09,11,07,24,10.50
2016,09,11,07,25,10.50
2016,09,11,07,26,10.50
2016,09,11,07,27,10.50
2016,09,11,07,28,10.50
2016,09,11,07,29,10.50
2016,09,11,07,30,10.50
2016,09,11,07,31,10.50
2016,09,11,07,32,10.50
2016,09,11,07,33,10.50
2016,09,11,07,34,10.50
2016,09,11,07,35,10.60
2016,09,11,07,36,10.60
2016,09,11,07,37,10.60
2016,09,11,07,38,10.60
2016,09,11,07,39,10.60
2016,09,11,07,40,10.60
2016,09,11,07,41,10.60
2016,09,11,07,42,10.60
2016,09,11,07,43,10.70
2016,09,11,07,44,10.70
2016,09,11,07,45,10.70
2016,09,11,07,46,10.70
2016,09,11,07,47,10.70
2016,09,11,07,48,10.70
2016,09,11,07,49,10.70
2016,09,11,07,50,10.80
2016,09,11,07,51,10.80
2016,09,11,07,52,10.80
2016,09,11,07,53,10.80
2016,09,11,07,54,10.80
2016,09,11,07,55,10.80
2016,09,11,07,56,10.80
2016,09,11,07,57,10.90
2016,09,11,07,58,10.90
2016,09,11,07,59,10.90
2016,09,11,08,00,10.90
2016,09,11,08,01,11.00
2016,09,11,08,02,11.00
2016,09,11,08,03,11.10
2016,09,11,08,04,11.10
2016,09,11,08,05,11.20
2016,09,11,08,06,11.20
2016,09,11,08,07,11.30
2016,09,11,08,08,11.30
2016,09,11,08,09,11.40
2016,09,11,08,10,11.40
2016,09,11,08,11,11.50
2016,09,11,08,12,11.60
2016,09,11,08,13,11.60
2016,09,11,08,14,11.70
2016,09,11,08,15,11.70
2016,09,11,08,16,11.80
2016,09,11,08,17,11.80
2016,09,11,08,18,11.90
2016,09,11,08,19,11.90
2016,09,11,08,20,12.00
2016,09,11,08,21,12.10
2016,09,11,08,22,12.10
2016,09,11,08,23,12.10
2016,09,11,08,24,12.20
2016,09,11,08,25,12.20
2016,09,11,08,26,12.20
2016,09,11,08,27,12.30
2016,09,11,08,28,12.30
2016,09,11,08,29,12.30
2016,09,11,08,30,12.30
2016,09,11,08,31,12.40
2016,09,11,08,32,12.40
2016,09,11,08,33,12.40
2016,09,11,08,34,12.40
2016,09,11,08,35,12.40
2016,09,11,08,36,12.50
2016,09,11,08,37,12.50
2016,09,11,08,38,12.50
2016,09,11,08,39,12.50
2016,09,11,08,40,12.60
2016,09,11,08,41,12.60
2016,09,11,08,42,12.60
2016,09,11,08,43,12.70
2016,09,11,08,44,12.70
2016,09,11,08,45,12.70
2016,09,11,08,46,12.70
2016,09,11,08,47,12.70
2016,09,11,08,48,12.70
2016,09,11,08,49,12.60
2016,09,11,08,50,12.60
2016,09,11,08,51,12.60
2016,09,11,08,52,12.60
2016,09,11,08,53,12.70
2016,09,11,08,54,12.70
2016,09,11,08,55,12.80
2016,09,11,08,56,12.80
2016,09,11,08,57,12.90
2016,09,11,08,58,13.00
2016,09,11,08,59,13.00
2016,09,11,09,00,13.10
2016,09,11,09,01,13.10
2016,09,11,09,02,13.20
2016,09,11,09,03,13.30
2016,09,11,09,04,13.30
2016,09,11,09,05,13.40
2016,09,11,09,06,13.50
2016,09,11,09,07,13.50
2016,09,11,09,08,13.60
2016,09,11,09,09,13.60
2016,09,11,09,10,13.70
2016,09,11,09,11,13.80
2016,09,11,09,12,13.80
2016,09,11,09,13,13.80
2016,09,11,09,14,13.90
2016,09,11,09,15,13.90
2016,09,11,09,16,13.90
2016,09,11,09,17,14.00
2016,09,11,09,18,14.00
2016,09,11,09,19,14.00
2016,09,11,09,20,14.00
2016,09,11,09,21,14.00
2016,09,11,09,22,14.00
2016,09,11,09,23,14.00
2016,09,11,09,24,14.00
2016,09,11,09,25,14.00
2016,09,11,09,26,13.90
2016,09,11,09,27,13.90
2016,09,11,09,28,13.90
2016,09,11,09,29,13.90
2016,09,11,09,30,13.90
2016,09,11,09,31,13.90
2016,09,11,09,32,13.90
2016,09,11,09,33,13.90
2016,09,11,09,34,13.90
2016,09,11,09,35,13.90
2016,09,11,09,36,13.90
2016,09,11,09,37,13.90
2016,09,11,09,38,13.80
2016,09,11,09,39,13.80
2016,09,11,09,40,13.80
2016,09,11,09,41,13.80
2016,09,11,09,42,13.80
2016,09,11,09,43,13.80
2016,09,11,09,44,13.80
2016,09,11,09,45,13.80
2016,09,11,09,46,13.80
2016,09,11,09,47,13.80
2016,09,11,09,48,13.80
2016,09,11,09,49,13.80
2016,09,11,09,50,13.90
2016,09,11,09,51,13.90
2016,09,11,09,52,13.90
2016,09,11,09,53,13.90
2016,09,11,09,54,13.90
2016,09,11,09,55,14.00
2016,09,11,09,56,14.00
2016,09,11,09,57,14.00
2016,09,11,09,58,14.00
2016,09,11,09,59,14.10
2016,09,11,10,00,14.10
2016,09,11,10,01,14.10
2016,09,11,10,02,14.10
2016,09,11,10,03,14.20
2016,09,11,10,04,14.20
2016,09,11,10,05,14.20
2016,09,11,10,06,14.20
2016,09,11,10,07,14.30
2016,09,11,10,08,14.30
2016,09,11,10,09,14.30
2016,09,11,10,10,14.40
2016,09,11,10,11,14.40
2016,09,11,10,12,14.40
2016,09,11,10,13,14.40
2016,09,11,10,14,14.40
2016,09,11,10,15,14.40
2016,09,11,10,16,14.40
2016,09,11,10,17,14.40
2016,09,11,10,18,14.40
2016,09,11,10,19,14.40
2016,09,11,10,20,14.40
2016,09,11,10,21,14.30
2016,09,11,10,22,14.30
2016,09,11,10,23,14.30
2016,09,11,10,24,14.30
2016,09,11,10,25,14.30
2016,09,11,10,26,14.30
2016,09,11,10,27,14.30
2016,09,11,10,28,14.20
2016,09,11,10,29,14.20
2016,09,11,10,30,14.20
2016,09,11,10,31,14.30
2016,09,11,10,32,14.30
2016,09,11,10,33,14.30
2016,09,11,10,34,14.30
2016,09,11,10,35,14.30
2016,09,11,10,36,14.40
2016,09,11,10,37,14.40
2016,09,11,10,38,14.40
2016,09,11,10,39,14.40
2016,09,11,10,40,14.40
2016,09,11,10,41,14.40
2016,09,11,10,42,14.40
2016,09,11,10,43,14.40
2016,09,11,10,44,14.40
2016,09,11,10,45,14.40
2016,09,11,10,46,14.50
2016,09,11,10,47,14.50
2016,09,11,10,48,14.60
2016,09,11,10,49,14.60
2016,09,11,10,50,14.60
2016,09,11,10,51,14.70
2016,09,11,10,52,14.80
2016,09,11,10,53,14.90
2016,09,11,10,54,15.00
2016,09,11,10,55,15.00
2016,09,11,10,56,15.00
2016,09,11,10,57,15.10
2016,09,11,10,58,15.30
2016,09,11,10,59,15.40
2016,09,11,11,00,15.50
2016,09,11,11,01,15.50
2016,09,11,11,02,15.60
2016,09,11,11,03,15.60
2016,09,11,11,04,15.70
2016,09,11,11,05,15.70
2016,09,11,11,06,15.80
2016,09,11,11,07,15.90
2016,09,11,11,08,15.90
2016,09,11,11,09,15.90
2016,09,11,11,10,15.90
2016,09,11,11,11,16.00
2016,09,11,11,12,15.90
2016,09,11,11,13,15.90
2016,09,11,11,14,15.90
2016,09,11,11,15,15.90
2016,09,11,11,16,16.00
2016,09,11,11,17,16.00
2016,09,11,11,18,16.10
2016,09,11,11,19,16.10
2016,09,11,11,20,16.10
2016,09,11,11,21,16.00
2016,09,11,11,22,16.00
2016,09,11,11,23,15.90
2016,09,11,11,24,15.90
2016,09,11,11,25,16.00
2016,09,11,11,26,16.00
2016,09,11,11,27,15.90
2016,09,11,11,28,15.90
2016,09,11,11,29,15.90
2016,09,11,11,30,16.00
2016,09,11,11,31,16.00
2016,09,11,11,32,16.10
2016,09,11,11,33,16.10
2016,09,11,11,34,16.20
2016,09,11,11,35,16.20
2016,09,11,11,36,16.30
2016,09,11,11,37,16.40
2016,09,11,11,38,16.50
2016,09,11,11,39,16.60
2016,09,11,11,40,16.70
2016,09,11,11,41,16.70
2016,09,11,11,42,16.60
2016,09,11,11,43,16.50
2016,09,11,11,44,16.50
2016,09,11,11,45,16.40
2016,09,11,11,46,16.40
2016,09,11,11,47,16.40
2016,09,11,11,48,16.40
2016,09,11,11,49,16.40
2016,09,11,11,50,16.40
2016,09,11,11,51,16.50
2016,09,11,11,52,16.50
2016,09,11,11,53,16.60
2016,09,11,11,54,16.60
2016,09,11,11,55,16.70
2016,09,11,11,56,16.70
2016,09,11,11,57,16.70
2016,09,11,11,58,16.80
2016,09,11,11,59,16.70
2016,09,11,12,00,16.80
2016,09,11,12,01,16.70
2016,09,11,12,02,16.70
2016,09,11,12,03,16.80
2016,09,11,12,04,16.80
2016,09,11,12,05,16.80
2016,09,11,12,06,16.80
2016,09,11,12,07,16.80
2016,09,11,12,08,16.80
2016,09,11,12,09,16.90
2016,09,11,12,10,16.90
2016,09,11,12,11,16.90
2016,09,11,12,12,17.00
2016,09,11,12,13,17.10
2016,09,11,12,14,17.10
2016,09,11,12,15,17.20
2016,09,11,12,16,17.20
2016,09,11,12,17,17.20
2016,09,11,12,18,17.20
2016,09,11,12,19,17.20
2016,09,11,12,20,17.20
2016,09,11,12,21,17.20
2016,09,11,12,22,17.20
2016,09,11,12,23,17.30
2016,09,11,12,24,17.30
2016,09,11,12,25,17.30
2016,09,11,12,26,17.30
2016,09,11,12,27,17.40
2016,09,11,12,28,17.40
2016,09,11,12,29,17.50
2016,09,11,12,30,17.50
2016,09,11,12,31,17.60
2016,09,11,12,32,17.60
2016,09,11,12,33,17.70
2016,09,11,12,34,17.80
2016,09,11,12,35,18.00
2016,09,11,12,36,18.10
2016,09,11,12,37,18.10
2016,09,11,12,38,18.20
2016,09,11,12,39,18.20
2016,09,11,12,40,18.30
2016,09,11,12,41,18.30
2016,09,11,12,42,18.40
2016,09,11,12,43,18.50
2016,09,11,12,44,18.60
2016,09,11,12,45,18.70
2016,09,11,12,46,18.80
2016,09,11,12,47,18.80
2016,09,11,12,48,18.90
2016,09,11,12,49,19.00
2016,09,11,12,50,19.10
2016,09,11,12,51,19.10
2016,09,11,12,52,19.10
2016,09,11,12,53,19.00
2016,09,11,12,54,18.90
2016,09,11,12,55,18.80
2016,09,11,12,56,18.80
2016,09,11,12,57,18.70
2016,09,11,12,58,18.70
2016,09,11,12,59,18.70
2016,09,11,13,00,18.60
2016,09,11,13,01,18.40
2016,09,11,13,02,18.20
2016,09,11,13,03,18.10
2016,09,11,13,04,18.00
2016,09,11,13,05,18.00
2016,09,11,13,06,17.90
2016,09,11,13,07,17.80
2016,09,11,13,08,17.80
2016,09,11,13,09,17.80
2016,09,11,13,10,17.70
2016,09,11,13,11,17.70
2016,09,11,13,12,17.70
2016,09,11,13,13,17.70
2016,09,11,13,14,17.80
2016,09,11,13,15,17.80
2016,09,11,13,16,17.80
2016,09,11,13,17,17.80
2016,09,11,13,18,17.90
2016,09,11,13,19,18.00
2016,09,11,13,20,18.10
2016,09,11,13,21,18.20
2016,09,11,13,22,18.20
2016,09,11,13,23,18.20
2016,09,11,13,24,18.20
2016,09,11,13,25,18.20
2016,09,11,13,26,18.30
2016,09,11,13,27,18.40
2016,09,11,13,28,18.40
2016,09,11,13,29,18.50
2016,09,11,13,30,18.60
2016,09,11,13,31,18.70
2016,09,11,13,32,18.80
2016,09,11,13,33,18.90
2016,09,11,13,34,18.90
2016,09,11,13,35,19.00
2016,09,11,13,36,19.00
2016,09,11,13,37,19.10
2016,09,11,13,38,19.20
2016,09,11,13,39,19.30
2016,09,11,13,40,19.40
2016,09,11,13,41,19.40
2016,09,11,13,42,19.40
2016,09,11,13,43,19.40
2016,09,11,13,44,19.30
2016,09,11,13,45,19.30
2016,09,11,13,46,19.40
2016,09,11,13,47,19.40
2016,09,11,13,48,19.50
2016,09,11,13,49,19.60
2016,09,11,13,50,19.70
2016,09,11,13,51,19.80
2016,09,11,13,52,20.00
2016,09,11,13,53,20.10
2016,09,11,13,54,20.20
2016,09,11,13,55,20.30
2016,09,11,13,56,20.40
2016,09,11,13,57,20.50
2016,09,11,13,58,20.50
2016,09,11,13,59,20.60
2016,09,11,14,00,20.60
2016,09,11,14,01,20.70
2016,09,11,14,02,20.80
2016,09,11,14,03,20.80
2016,09,11,14,04,20.80
2016,09,11,14,05,20.90
2016,09,11,14,06,20.90
2016,09,11,14,07,20.90
2016,09,11,14,08,20.80
2016,09,11,14,09,20.70
2016,09,11,14,10,20.70
2016,09,11,14,11,20.70
2016,09,11,14,12,20.70
2016,09,11,14,13,20.70
2016,09,11,14,14,20.70
2016,09,11,14,15,20.70
2016,09,11,14,16,20.80
2016,09,11,14,17,20.80
2016,09,11,14,18,20.90
2016,09,11,14,19,20.90
2016,09,11,14,20,21.00
2016,09,11,14,21,21.10
2016,09,11,14,22,21.10
2016,09,11,14,23,21.10
2016,09,11,14,24,21.20
2016,09,11,14,25,21.20
2016,09,11,14,26,21.20
2016,09,11,14,27,21.20
2016,09,11,14,28,21.20
2016,09,11,14,29,21.30
2016,09,11,14,30,21.30
2016,09,11,14,31,21.30
2016,09,11,14,32,21.30
2016,09,11,14,33,21.40
2016,09,11,14,34,21.50
2016,09,11,14,35,21.60
2016,09,11,14,36,21.70
2016,09,11,14,37,21.80
2016,09,11,14,38,21.80
2016,09,11,14,39,21.80
2016,09,11,14,40,21.80
2016,09,11,14,41,21.80
2016,09,11,14,42,21.80
2016,09,11,14,43,21.80
2016,09,11,14,44,21.80
2016,09,11,14,45,21.80
2016,09,11,14,46,21.80
2016,09,11,14,47,21.90
2016,09,11,14,48,21.90
2016,09,11,14,49,22.00
2016,09,11,14,50,22.00
2016,09,11,14,51,22.10
2016,09,11,14,52,22.10
2016,09,11,14,53,22.10
2016,09,11,14,54,22.10
2016,09,11,14,55,22.10
2016,09,11,14,56,22.10
2016,09,11,14,57,22.10
2016,09,11,14,58,22.10
2016,09,11,14,59,22.10
2016,09,11,15,00,22.10
2016,09,11,15,01,22.10
2016,09,11,15,02,22.10
2016,09,11,15,03,22.10
2016,09,11,15,04,21.90
2016,09,11,15,05,21.80
2016,09,11,15,06,21.80
2016,09,11,15,07,21.80
2016,09,11,15,08,21.80
2016,09,11,15,09,21.80
2016,09,11,15,10,21.80
2016,09,11,15,11,21.80
2016,09,11,15,12,21.80
2016,09,11,15,13,21.80
2016,09,11,15,14,21.80
2016,09,11,15,15,21.80
2016,09,11,15,16,21.80
2016,09,11,15,17,21.80
2016,09,11,15,18,21.80
2016,09,11,15,19,21.80
2016,09,11,15,20,21.80
2016,09,11,15,21,21.80
2016,09,11,15,22,21.80
2016,09,11,15,23,21.80
2016,09,11,15,24,21.80
2016,09,11,15,25,21.80
2016,09,11,15,26,21.80
2016,09,11,15,27,21.80
2016,09,11,15,28,21.80
2016,09,11,15,29,21.80
2016,09,11,15,30,21.70
2016,09,11,15,31,21.70
2016,09,11,15,32,21.70
2016,09,11,15,33,21.70
2016,09,11,15,34,21.70
2016,09,11,15,35,21.70
2016,09,11,15,36,21.80
2016,09,11,15,37,21.80
2016,09,11,15,38,21.80
2016,09,11,15,39,21.80
2016,09,11,15,40,21.70
2016,09,11,15,41,21.50
2016,09,11,15,42,21.40
2016,09,11,15,43,21.30
2016,09,11,15,44,21.30
2016,09,11,15,45,21.30
2016,09,11,15,46,21.30
2016,09,11,15,47,21.30
2016,09,11,15,48,21.30
2016,09,11,15,49,21.40
2016,09,11,15,50,21.40
2016,09,11,15,51,21.50
2016,09,11,15,52,21.50
2016,09,11,15,53,21.50
2016,09,11,15,54,21.60
2016,09,11,15,55,21.60
2016,09,11,15,56,21.60
2016,09,11,15,57,21.60
2016,09,11,15,58,21.60
2016,09,11,15,59,21.50
2016,09,11,16,00,21.50
2016,09,11,16,01,21.40
2016,09,11,16,02,21.40
2016,09,11,16,03,21.30
2016,09,11,16,04,21.40
2016,09,11,16,05,21.40
2016,09,11,16,06,21.30
2016,09,11,16,07,21.30
2016,09,11,16,08,21.30
2016,09,11,16,09,21.20
2016,09,11,16,10,21.10
2016,09,11,16,11,21.10
2016,09,11,16,12,21.10
2016,09,11,16,13,21.10
2016,09,11,16,14,21.00
2016,09,11,16,15,20.90
2016,09,11,16,16,20.80
2016,09,11,16,17,20.80
2016,09,11,16,18,20.70
2016,09,11,16,19,20.70
2016,09,11,16,20,20.60
2016,09,11,16,21,20.60
2016,09,11,16,22,20.70
2016,09,11,16,23,20.70
2016,09,11,16,24,20.80
2016,09,11,16,25,20.90
2016,09,11,16,26,21.00
2016,09,11,16,27,21.10
2016,09,11,16,28,21.10
2016,09,11,16,29,21.20
2016,09,11,16,30,21.20
2016,09,11,16,31,21.20
2016,09,11,16,32,21.20
2016,09,11,16,33,21.10
2016,09,11,16,34,21.10
2016,09,11,16,35,21.10
2016,09,11,16,36,21.10
2016,09,11,16,37,21.20
2016,09,11,16,38,21.20
2016,09,11,16,39,21.20
2016,09,11,16,40,21.30
2016,09,11,16,41,21.30
2016,09,11,16,42,21.30
2016,09,11,16,43,21.30
2016,09,11,16,44,21.30
2016,09,11,16,45,21.40
2016,09,11,16,46,21.40
2016,09,11,16,47,21.40
2016,09,11,16,48,21.30
2016,09,11,16,49,21.30
2016,09,11,16,50,21.30
2016,09,11,16,51,21.40
2016,09,11,16,52,21.40
2016,09,11,16,53,21.40
2016,09,11,16,54,21.40
2016,09,11,16,55,21.40
2016,09,11,16,56,21.40
2016,09,11,16,57,21.40
2016,09,11,16,58,21.40
2016,09,11,16,59,21.40
2016,09,11,17,00,21.40
2016,09,11,17,01,21.40
2016,09,11,17,02,21.50
2016,09,11,17,03,21.40
2016,09,11,17,04,21.40
2016,09,11,17,05,21.40
2016,09,11,17,06,21.40
2016,09,11,17,07,21.30
2016,09,11,17,08,21.30
2016,09,11,17,09,21.30
2016,09,11,17,10,21.30
2016,09,11,17,11,21.30
2016,09,11,17,12,21.30
2016,09,11,17,13,21.30
2016,09,11,17,14,21.30
2016,09,11,17,15,21.20
2016,09,11,17,16,21.30
2016,09,11,17,17,21.30
2016,09,11,17,18,21.30
2016,09,11,17,19,21.30